Theta_e
299 300 316 327 333 336 339 341 343 347 348 348 348 349 348 349 349 349 349 349 350 349 348 345 346 345 343 343 341 341 341 341 342 341 340 341 341 341 339 339 338 336 339
298 298 311 322 328 330 334 336 338 341 344 347 348 347 347 346 347 348 348 347 347 348 348 347 346 345 343 343 341 341 341 341 342 342 342 341 343 342 340 338 337 335 335
295 296 301 317 322 326 328 331 333 337 341 342 346 347 346 347 345 345 347 347 347 347 348 348 345 346 344 343 342 341 341 340 341 340 338 338 338 338 337 336 335 333 332
295 295 300 313 318 321 324 326 329 332 335 336 339 341 346 347 346 346 345 346 346 346 346 347 347 346 346 344 342 341 341 339 339 338 336 335 335 335 334 333 332 336 338
293 294 299 310 314 317 319 322 324 327 329 331 333 336 339 342 345 344 345 345 345 345 346 346 346 346 346 345 343 342 340 340 338 336 333 334 335 335 338 334 331 332 333
292 293 296 307 310 313 315 317 320 321 323 325 327 329 333 336 337 341 343 343 343 344 346 345 345 345 346 345 344 344 342 341 337 336 334 333 336 336 340 339 333 330 330
291 292 293 302 305 308 311 313 315 316 318 319 321 323 326 329 330 332 334 337 341 342 341 343 345 345 345 344 344 344 343 340 336 335 335 335 335 335 337 339 338 334 331
291 291 292 295 300 303 306 308 310 312 313 314 315 317 319 321 322 325 328 331 333 335 339 342 342 343 344 343 343 342 340 336 336 335 333 332 333 334 336 340 341 338 334
291 290 291 291 293 296 300 303 306 307 308 309 309 309 310 311 313 316 317 323 327 328 332 336 338 340 342 342 342 340 336 334 340 338 334 333 330 334 337 337 340 340 336
290 290 289 290 291 292 293 298 300 302 303 303 303 304 304 304 306 308 310 315 319 320 324 326 329 333 337 339 338 335 332 332 340 339 337 335 331 335 336 337 339 341 339
289 289 289 289 290 291 293 293 295 297 298 298 297 299 298 298 299 300 305 309 312 312 316 319 322 322 323 332 333 331 329 339 340 338 337 331 333 336 336 336 338 341 341
287 288 288 288 288 289 292 291 292 292 293 293 293 294 294 295 296 298 300 302 304 306 309 313 315 316 316 320 328 331 337 337 336 336 336 331 334 337 337 336 336 341 341
286 287 288 288 288 288 289 290 290 292 292 292 291 292 293 293 294 295 296 297 298 300 301 305 308 309 310 313 316 319 333 334 335 335 332 328 333 337 338 336 336 337 342
285 286 287 288 288 288 289 289 289 290 290 290 291 291 291 291 292 293 293 294 294 296 297 299 302 304 306 309 311 313 315 329 332 334 332 324 330 335 338 337 336 336 338
284 285 286 287 287 287 288 288 288 288 289 289 289 290 290 290 290 291 292 292 293 294 295 296 297 299 301 303 306 309 311 314 318 330 331 321 324 331 336 338 338 337 338
284 284 286 286 286 287 287 287 287 288 288 288 289 289 290 290 289 290 290 291 292 294 294 294 295 296 297 299 303 303 304 308 310 314 323 330 324 327 331 335 338 340 339
283 284 285 286 286 286 286 286 287 287 287 287 287 288 288 289 289 289 290 291 292 293 292 293 294 295 296 297 297 298 300 302 306 310 315 324 330 323 325 330 333 336 339
283 283 284 284 284 285 285 285 285 286 286 286 286 287 287 287 288 288 288 289 291 291 290 291 291 292 294 294 294 296 298 301 306 310 311 315 325 329 327 326 328 331 334
282 282 282 283 283 284 285 285 284 284 284 284 285 285 285 285 286 286 286 287 288 288 288 289 290 291 291 292 293 296 298 300 303 304 302 309 309 311 313 321 323 322 326
282 282 282 282 282 283 283 284 284 283 283 283 283 283 284 284 283 284 284 285 286 285 286 288 288 290 290 290 292 294 297 301 300 298 302 305 303 304 308 309 314 321 320
281 281 281 281 281 282 282 282 282 281 282 282 282 283 283 283 283 282 282 283 284 283 284 286 287 287 288 290 290 291 297 299 295 296 300 299 298 300 300 302 304 309 315
281 280 281 281 280 281 282 282 282 282 282 281 282 282 282 282 282 281 281 281 282 281 281 283 285 285 286 288 285 288 287 292 293 294 297 294 295 296 297 299 301 302 306
279 280 280 281 281 280 281 281 281 281 281 280 280 280 281 281 281 281 280 280 280 281 280 281 282 283 282 285 287 284 282 281 285 293 293 292 292 293 295 296 299 300 302
279 280 281 281 281 280 280 280 279 278 278 278 279 280 280 281 280 280 280 280 280 280 279 280 280 283 283 281 285 285 286 285 282 283 287 290 290 290 291 293 294 297 300
280 280 280 280 280 280 279 279 278 278 279 279 279 279 279 280 280 280 280 279 279 279 279 279 279 280 282 282 282 282 284 284 286 281 280 283 286 289 291 291 295 294 296
280 280 279 280 279 280 279 278 278 278 278 278 278 278 278 279 279 279 279 279 279 279 278 279 279 279 280 281 281 282 282 280 280 280 280 281 281 285 287 291 292 292 294
Wind_Speed
11 14 23 24 23 22 22 22 20 20 15 10 8 10 9 9 9 9 8 8 7 5 6 1 6 6 6 6 6 7 7 7 6 6 5 4 1 8 9 8 7 7 8
12 15 21 22 22 22 22 21 20 19 19 17 10 8 8 7 7 7 7 7 8 8 8 8 4 6 6 7 7 7 7 7 7 6 5 5 9 10 9 7 6 5 4
13 13 15 22 20 20 21 22 21 21 19 18 19 13 4 4 4 5 6 5 6 8 8 9 2 5 8 8 8 7 7 6 6 6 4 2 3 4 6 5 4 3 1
12 13 14 19 19 20 20 21 21 21 20 19 19 17 18 13 7 6 7 7 8 7 7 8 7 5 8 8 8 8 8 7 6 6 3 1 1 1 3 4 3 2 6
12 12 14 19 19 20 21 21 20 20 19 20 19 19 17 17 15 13 9 6 7 10 9 8 8 7 8 11 9 9 8 8 7 6 5 4 3 3 5 3 3 3 1
12 12 14 19 19 19 20 20 20 20 20 20 20 19 18 18 18 17 15 13 12 10 9 9 8 8 3 10 10 10 9 9 8 6 6 5 6 6 8 7 6 5 4
12 12 12 19 19 19 20 20 20 20 20 20 20 20 19 19 19 19 18 18 16 14 13 12 8 6 6 4 8 9 9 9 8 7 7 6 7 9 11 12 11 9 7
11 12 13 17 19 19 20 20 21 20 20 21 21 20 18 19 19 20 19 18 18 19 17 14 12 9 6 6 7 8 8 8 7 7 8 7 9 11 11 12 12 12 9
12 13 13 14 16 17 20 21 21 21 21 21 22 21 19 19 19 20 20 20 19 19 19 18 15 13 10 8 8 9 9 9 9 6 7 6 9 13 15 13 13 12 10
11 13 13 13 13 12 13 21 20 21 21 22 22 22 20 18 19 19 20 20 20 21 19 19 18 18 14 11 9 8 8 9 10 9 7 7 11 14 15 15 15 13 13
12 14 14 14 14 13 13 13 16 19 20 22 20 21 15 11 13 15 17 21 20 22 20 20 19 18 18 10 9 8 8 6 9 7 6 9 14 16 16 16 15 15 15
14 14 13 13 14 12 10 12 12 12 11 13 14 15 11 12 12 13 15 19 19 21 19 20 19 18 14 8 7 7 6 8 8 8 7 11 15 18 18 18 17 16 16
9 10 13 12 12 12 10 8 7 7 7 9 15 14 12 10 10 9 8 9 10 16 9 12 10 8 11 8 8 8 9 7 6 7 9 12 16 18 20 20 20 18 17
9 10 11 12 11 12 7 8 9 8 8 8 11 15 11 8 10 10 8 11 10 10 12 11 8 11 11 11 10 10 10 8 5 6 8 12 16 20 21 22 22 21 19
10 10 11 11 11 10 11 8 9 10 9 10 11 13 11 11 10 10 10 9 10 10 10 11 11 11 12 12 10 10 10 9 10 6 5 10 15 19 22 23 24 24 23
8 9 8 11 10 10 10 11 9 8 9 9 10 12 14 10 10 10 10 10 10 10 10 10 11 11 10 11 12 12 11 10 9 9 7 7 13 17 20 23 25 26 26
6 7 9 9 9 10 10 9 8 8 9 9 10 13 15 13 12 11 10 10 10 10 12 10 11 10 9 10 13 12 11 11 9 10 8 9 8 13 18 23 24 26 28
5 7 7 7 8 9 10 8 7 8 8 9 9 10 15 14 14 11 10 11 11 10 11 10 11 11 10 11 11 11 10 11 12 9 10 10 10 9 8 17 21 24 26
4 5 7 8 8 7 7 7 9 11 9 9 9 10 14 14 14 11 10 10 11 10 10 11 10 11 10 12 12 11 9 8 9 11 13 12 13 13 12 16 14 13 20
3 4 5 6 7 6 3 4 6 8 8 8 9 10 13 11 14 11 10 12 11 10 10 11 13 11 11 12 11 9 8 6 7 9 11 10 14 15 15 17 15 10 12
3 3 4 5 6 5 3 2 2 4 5 8 8 11 12 12 13 13 9 11 11 11 12 13 11 14 12 14 9 8 5 7 11 11 10 11 15 16 15 14 11 10 11
4 3 3 4 4 4 2 1 1 1 3 4 6 9 10 11 12 11 11 10 11 9 12 13 13 10 8 11 10 6 8 6 9 8 9 12 15 13 14 16 15 16 13
5 5 4 3 3 3 4 2 2 2 2 3 6 6 8 10 10 11 11 10 10 9 9 11 11 13 10 10 13 7 6 6 12 4 8 12 16 12 13 14 16 16 16
7 5 4 4 3 3 3 4 5 3 3 2 3 4 6 8 10 10 11 10 10 8 11 10 10 10 9 10 5 9 6 7 6 10 6 7 15 15 16 13 14 15 16
7 7 6 4 3 3 3 4 3 4 2 1 2 5 6 6 8 10 10 10 10 8 9 10 11 10 8 7 6 7 5 7 5 7 11 12 11 12 12 13 12 12 15
6 6 6 5 4 4 3 3 3 3 2 2 3 4 4 4 5 8 8 7 7 7 8 8 8 9 8 7 6 6 6 5 8 6 10 15 18 10 13 9 11 12 12
Wind_Direction
346 349 351 360 10 17 23 21 20 23 16 26 48 56 59 58 57 52 40 35 26 6 337 6 138 133 124 122 123 127 125 116 100 97 89 61 108 125 115 88 66 57 57
342 351 351 1 10 18 22 24 19 21 23 21 17 46 41 44 57 55 43 25 15 7 355 10 178 153 142 139 140 141 137 125 109 102 84 59 68 95 102 90 78 64 54
354 355 345 2 9 20 23 23 22 22 21 22 20 7 17 35 24 37 37 31 15 359 357 355 321 196 158 157 157 156 150 148 140 134 120 118 93 104 111 107 83 61 4
351 353 347 4 10 19 25 27 23 22 22 23 21 15 13 5 12 25 18 9 2 351 353 350 347 244 179 173 174 169 166 166 163 155 169 202 253 259 163 149 131 98 47
360 358 352 7 13 22 23 25 26 25 24 22 21 20 18 15 12 4 4 5 357 346 345 347 354 356 200 187 185 179 179 173 181 181 190 211 233 268 255 215 185 173 155
3 4 359 11 16 24 25 26 27 25 25 25 21 23 23 23 22 18 13 360 354 347 346 335 338 351 338 201 194 185 187 185 190 204 209 221 242 251 263 267 222 219 213
6 7 8 13 19 23 26 27 28 28 27 26 24 25 25 25 26 25 23 19 7 354 341 334 333 328 332 245 203 197 193 201 210 218 224 229 242 258 269 268 231 226 226
13 11 12 12 19 23 26 27 27 28 29 27 26 25 25 25 27 28 24 22 20 11 357 344 332 332 311 290 246 230 221 213 217 233 234 239 246 256 270 268 250 229 231
21 19 17 15 14 18 25 26 26 28 28 27 24 25 23 22 23 24 20 19 22 14 14 6 351 335 313 302 281 254 231 223 235 233 241 247 245 257 266 278 271 233 238
29 26 19 17 17 17 24 23 25 27 27 26 24 21 20 21 16 21 19 14 18 15 13 9 6 0 339 317 299 289 260 241 243 239 236 243 245 256 262 274 264 249 239
27 25 18 18 19 18 30 20 22 24 25 24 19 17 18 17 11 16 15 14 14 11 9 8 5 3 360 346 310 285 269 268 260 250 251 233 236 248 255 258 266 264 249
17 19 19 18 19 21 27 21 23 24 25 26 20 17 17 17 13 15 14 13 12 10 5 3 1 1 5 351 341 300 294 278 266 260 254 237 239 247 250 253 255 257 257
14 22 19 18 20 24 25 26 25 26 23 24 23 21 19 16 14 17 11 10 8 6 5 358 355 360 353 349 343 341 300 274 271 260 254 233 245 250 252 252 253 253 254
30 23 22 22 26 28 26 32 32 29 29 29 24 21 21 18 18 18 16 12 12 5 2 1 352 348 347 344 341 335 340 310 259 268 263 229 238 251 255 256 253 251 251
38 26 25 26 28 28 37 34 36 36 33 31 29 25 23 23 21 17 18 16 15 8 4 358 355 352 348 341 341 333 336 326 339 295 264 232 237 250 256 256 257 256 251
35 30 24 39 32 36 39 39 38 38 34 36 32 27 26 26 24 24 23 22 18 11 5 360 357 353 347 343 342 336 328 318 314 307 311 276 240 248 257 262 263 259 255
38 30 31 44 34 41 42 41 42 37 37 37 34 30 29 27 26 27 29 25 15 8 7 5 4 0 357 348 338 331 324 319 308 312 316 309 277 241 248 260 263 262 263
58 44 42 40 41 45 46 46 48 42 42 40 35 32 31 29 27 30 27 21 10 11 13 9 6 2 359 347 333 329 323 324 330 331 341 318 337 300 261 253 260 264 264
68 51 46 40 43 48 54 53 52 46 43 37 36 33 29 29 27 31 28 19 14 17 18 12 10 5 357 345 332 327 328 331 353 7 358 358 3 360 359 349 318 286 281
85 67 58 46 37 42 63 56 53 52 45 38 36 33 29 27 27 27 27 24 21 23 19 16 13 8 6 346 325 325 320 338 50 11 360 8 7 357 360 355 348 336 313
128 101 71 62 34 37 41 29 31 45 38 41 38 33 30 27 27 30 28 25 22 26 18 14 11 9 9 356 348 341 345 359 25 359 4 14 6 1 349 349 344 339 334
170 154 124 99 73 56 69 105 116 105 54 46 36 37 31 30 30 32 27 25 24 22 22 19 15 12 18 14 6 324 357 337 9 341 1 6 3 350 345 347 339 338 332
196 186 157 133 106 76 62 88 90 91 70 29 28 32 27 29 30 31 30 28 25 24 20 14 14 18 13 17 37 20 348 339 327 347 350 350 355 344 344 338 337 336 334
202 186 180 167 143 108 73 76 76 81 78 45 22 26 32 32 31 29 28 26 26 21 21 13 12 11 10 18 14 19 16 327 335 320 346 335 344 340 335 336 327 328 327
181 187 186 181 175 146 112 101 91 84 78 52 31 35 32 32 32 26 24 21 22 19 15 13 9 12 14 11 9 357 1 334 6 315 313 324 332 331 338 327 332 321 332
188 183 185 190 199 178 158 136 112 94 82 49 33 30 22 18 26 26 20 20 18 15 11 7 6 9 7 4 4 0 359 353 332 323 308 317 319 328 319 333 323 325 325